Location: Ernez
(36.4595°N, 29.8755°E)
Time: 08:41:42
(UTC+00:00)

Cosmos 2278 Rocket - Pass Details

Date: 13 November 2025
Orbit: 841 x 843 km, 71.0° (Epoch: 05 December)

Event Time Altitude Azimuth Distance (km) Brightness Sun altitude
Rises 17:04:58 0° 224° (SW) 3,384 6.0 -26.5°
Reaches altitude 10° 17:07:36 10° 233° (SW) 2,453 5.3 -27.1°
Maximum altitude 17:12:43 35° 299° (WNW) 1,325 3.6 -28.1°
Enters shadow 17:16:54 15° 359° (N) 2,145 4.3 -28.9°
